Location: Passau
(48.5830°N, 13.4830°E)
Time: 02:57:35
(UTC+01:00)

NOAA 19 - Pass Details

Date: 05 December 2021
Orbit: 841 x 860 km, 99.2° (Epoch: 17 January)

Event Time Altitude Azimuth Distance (km) Brightness Sun altitude
Rises 19:21:49 0° 185° (S) 3,383 8.4 -30.5°
Reaches altitude 10° 19:24:18 10° 193° (SSW) 2,454 7.7 -30.9°
Maximum altitude 19:29:23 40° 262° (W) 1,228 6.4 -31.8°
Drops below altitude 10° 19:34:32 10° 331° (NNW) 2,478 7.9 -32.6°
Sets 19:37:05 0° 339° (NNW) 3,421 8.6 -33.0°
